KTXEAGLE7 Weather Reports


time (UTC)temp
C
wind
direction
speed
KPH
gust
KPH
rain 1hr
cm
rain 24hr
cm
rain mn
cm
humidity
%
barometer
mb
20260504081522 15 162 0.0 0.0 0.00 0.00 0.00 93 1016.8
20260504044538 16 182 4.8 9.7 0.00 0.00 0.00 85 1019.3
20260504043031 17 182 4.8 8.0 0.00 0.00 0.00 84 1019.3
20260504041532 17 182 4.8 6.4 0.00 0.00 0.00 85 1019.2
20260504040029 17 182 3.2 6.4 0.00 0.00 0.00 85 1019.3
20260504034529 17 182 4.8 9.7 0.00 0.00 0.00 83 1019.3
20260504033028 17 184 6.4 9.7 0.00 0.00 0.00 82 1019.2
20260504031528 17 180 4.8 9.7 0.00 0.00 0.00 81 1019.2
20260504030037 18 192 8.0 11.3 0.00 0.00 0.00 79 1019.3
20260504024527 18 177 4.8 8.0 0.00 0.00 0.00 77 1018.9
20260504023028 18 188 8.0 14.5 0.00 0.00 0.00 75 1018.8
20260504021528 19 175 8.0 14.5 0.00 0.00 0.00 74 1018.7
20260504020028 19 165 9.7 20.9 0.00 0.00 0.00 72 1018.7
20260504014526 20 161 11.3 17.7 0.00 0.00 0.00 70 1018.7
20260504013025 20 181 11.3 19.3 0.00 0.00 0.00 70 1018.6
20260504011524 21 157 12.9 24.1 0.00 0.00 0.00 68 1018.4
20260504010023 21 198 6.4 11.3 0.00 0.00 0.00 72 1018.4
20260504004524 22 154 8.0 17.7 0.00 0.00 0.00 65 1018.4
20260504003022 23 157 11.3 20.9 0.00 0.00 0.00 62 1018.2
20260504001522 23 167 9.7 16.1 0.00 0.00 0.00 60 1018.4
20260504000021 23 159 12.9 22.5 0.00 0.00 0.00 58 1018.3
20260503234534 23 159 12.9 19.3 0.00 0.00 0.00 59 1018.3
20260503233019 24 142 11.3 17.7 0.00 0.00 0.00 51 1018.4
20260503231517 25 126 11.3 17.7 0.00 0.00 0.00 48 1018.7
20260503230016 25 134 11.3 17.7 0.00 0.00 0.00 45 1018.9
20260503224515 25 161 8.0 19.3 0.00 0.00 0.00 45 1019.1
20260503223012 25 146 8.0 17.7 0.00 0.00 0.00 45 1019.1
20260503221510 25 141 6.4 14.5 0.00 0.00 0.00 44 1019.4
20260503220024 25 133 8.0 16.1 0.00 0.00 0.00 44 1019.4
20260503214508 25 163 9.7 19.3 0.00 0.00 0.00 43 1019.6
20260503213009 24 154 9.7 19.3 0.00 0.00 0.00 48 1019.7
20260503211503 25 127 9.7 19.3 0.00 0.00 0.00 45 1020.1
20260503210001 25 169 11.3 20.9 0.00 0.00 0.00 44 1020.3
20260503204559 25 148 12.9 25.7 0.00 0.00 0.00 48 1020.6
20260503203103 24 137 9.7 20.9 0.00 0.00 0.00 41 1020.9
20260503201556 24 79 6.4 22.5 0.00 0.00 0.00 46 1020.8
20260503200057 24 150 12.9 24.1 0.00 0.00 0.00 43 1021.2
20260503194552 24 103 16.1 20.9 0.00 0.00 0.00 43 1021.4
20260503193054 24 104 16.1 24.1 0.00 0.00 0.00 43 1021.8
20260503191550 24 135 14.5 20.9 0.00 0.00 0.00 44 1021.9
20260503190048 24 158 12.9 22.5 0.00 0.00 0.00 46 1022.0
20260503184558 23 213 8.0 17.7 0.00 0.00 0.00 46 1022.3
20260503183056 23 162 8.0 14.5 0.00 0.00 0.00 52 1022.7
20260503181545 23 128 3.2 19.3 0.00 0.00 0.00 49 1022.9
20260503180044 23 85 9.7 14.5 0.00 0.00 0.00 50 1023.1
20260503174543 23 158 9.7 19.3 0.00 0.00 0.00 54 1023.3
20260503173042 23 155 6.4 19.3 0.00 0.00 0.00 54 1023.4
20260503171538 23 207 6.4 14.5 0.00 0.00 0.00 52 1023.6